www.pogodaiklimat.ru

Погода и климат >> Архив погоды >> Иран >> Остров Киш


ПОГОДА на Острове Киш

  • Прогноз погоды на Острове Киш
  • Монитор погоды на Острове Киш

АРХИВ ПОГОДЫ на Острове Киш

Время (UTC), дата Ветер
(напр.,м/с)
 
Видим.   Явления Облачность Т
(С)
Тd
(С)
f
(%)
Тe
(С)
Тes
(С)
Комфортность P
(гПа)
Po
(гПа)
Тmin
(С)
Tmax
(С)
R
(мм)
R24
(мм)
S
(см)
03 18.08 В 5 2500 м дымка ясно +32.6 +29.3 83 +57 +58 опасность
перегрева
999.0 995.8 +32.2
06 18.08 ЮВ 6 6000 м мгла ясно +35.8 +26.5 59 +53 +58 опасность
перегрева
1001.0 997.8
09 18.08 ЮВ 8 6000 м мгла ясно +37.4 +24.9 49 +50 +54 опасность
перегрева
1001.3 998.1
12 18.08 ЮВ 3 6000 м мгла ясно +37.6 +24.3 47 +50 +56 опасность
перегрева
999.8 996.6
15 18.08 нст 1 5000 м мгла ясно +35.2 +27.6 65 +55 +55 опасность
перегрева
1000.0 996.7 +38.0
18 18.08 нст 1 6000 м мгла ясно +34.0 +26.0 63 +50 +50 опасность
перегрева
1001.7 998.4
21 18.08 Ю 2 4000 м дымка ясно +32.8 +29.3 82 +57 +57 опасность
перегрева
1001.1 997.8
00 19.08 ЮВ 3 4000 м дымка ясно +32.2 +29.0 83 +55 +55 опасность
перегрева
1001.0 997.7
03 19.08 СВ 2 5000 м дымка ясно +32.4 +28.6 80 +54 +55 опасность
перегрева
1002.5 999.2 +32.2
06 19.08 ЮВ 4 5000 м мгла ясно +35.8 +29.0 68 +59 +69 опасность
перегрева
1003.4 1000.1
09 19.08 ЮВ 8 5000 м мгла ясно +36.8 +28.5 63 +59 +63 опасность
перегрева
1003.7 1000.4
12 19.08 Ю 4 7000 м мгла ясно +38.2 +27.0 53 +56 +61 опасность
перегрева
1002.2 998.9
15 19.08 ЮЗ 2 6000 м мгла ясно +35.6 +25.8 57 +51 +51 опасность
перегрева
1002.5 999.2 +38.4 666
18 19.08 СЗ 2 6000 м мгла ясно +34.0 +25.4 61 +48 +48 опасность
перегрева
1003.5 1000.3
21 19.08 СЗ 3 6000 м мгла ясно +33.4 +26.2 66 +50 +50 опасность
перегрева
1002.9 999.7
00 20.08 штиль 0 5000 м мгла ясно +32.8 +27.4 73 +52 +52 опасность
перегрева
1002.6 999.4
03 20.08 ЮВ 4 8000 м дымка ясно +32.0 +28.8 83 +55 +55 опасность
перегрева
1004.0 1000.7 +31.4 666
06 20.08 ЮВ 6 8000 м мгла 1/1 900 м
[Cu hum]
+34.2 +27.7 69 +54 +59 опасность
перегрева
1005.7 1002.4
09 20.08 ЮВ 5 6000 м мгла ясно +35.2 +27.6 65 +55 +66 опасность
перегрева
1004.9 1001.6
12 20.08 Ю 4 8000 м мгла ясно +36.0 +27.0 60 +54 +59 опасность
перегрева
1003.3 1000.0
15 20.08 З 3 7000 м мгла ясно +33.8 +28.7 75 +57 +57 опасность
перегрева
1003.2 999.9 +36.8
18 20.08 СЗ 4 5000 м мгла ясно +33.0 +28.8 79 +56 +56 опасность
перегрева
1003.4 1000.1
21 20.08 СЗ 2 5000 м дымка ясно +32.6 +29.3 83 +57 +57 опасность
перегрева
1002.8 999.5
00 21.08 СЗ 2 5000 м дымка ясно +32.0 +29.6 87 +57 +57 опасность
перегрева
1002.5 999.2
03 21.08 ЮВ 3 3000 м дымка 1/1 900 м
[Cu hum]
+32.0 +29.9 89 +58 +59 опасность
перегрева
1003.4 1000.1 +31.8
06 21.08 ЮВ 5 4000 м мгла 4/3 900 м
[Cu hum Ci fib]
+34.2 +29.4 76 +59 +64 опасность
перегрева
1005.1 1001.8
09 21.08 Ю 5 4000 м мгла 3/1 900 м
[Cu hum Ci fib]
+36.0 +29.7 70 +62 +71 опасность
перегрева
1003.8 1000.5
12 21.08 ЮЗ 5 5000 м мгла 4/0
[Ci fib]
+36.0 +29.1 68 +60 +64 опасность
перегрева
1002.2 998.9
15 21.08 З 3 3500 м мгла 1/0
[Ci fib]
+34.4 +26.8 65 +52 +52 опасность
перегрева
1001.7 998.4 +36.2 666
18 21.08 нст 1 4000 м мгла ясно +33.6 +26.2 65 +50 +50 опасность
перегрева
1002.3 999.0
21 21.08 штиль 0 3000 м мгла ясно +32.6 +27.1 73 +51 +51 опасность
перегрева
1001.3 998.1
00 22.08 штиль 0 3000 м мгла ясно +32.2 +27.6 77 +52 +52 опасность
перегрева
1001.3 998.1
03 22.08 штиль 0 3500 м мгла 6/4 900 м
[Cu hum Cs]
+32.4 +27.5 75 +51 +52 опасность
перегрева
1002.6 999.3 +31.8 666
06 22.08 ЮВ 4 3500 м мгла 9/9 900 м
[Sc]
+33.8 +28.7 75 +57 +58 опасность
перегрева
1003.4 1000.1
09 22.08 Ю 6 7000 м мгла ясно +36.4 +24.4 50 +48 +56 опасность
перегрева
1002.1 998.8 666
12 22.08 Ю 5 8000 м мгла 1/1 900 м
[Cu hum]
+35.8 +26.5 59 +53 +56 опасность
перегрева
1000.6 997.3
15 22.08 ЮЗ 3 7000 м мгла 4/0
[Ci fib]
+34.4 +26.2 62 +50 +50 опасность
перегрева
999.8 996.6 +37.2 666
18 22.08 СЗ 2 6000 м мгла ясно +33.4 +27.1 70 +52 +52 опасность
перегрева
1001.7 998.4
21 22.08 штиль 0 5000 м мгла ясно +32.6 +28.0 77 +53 +53 опасность
перегрева
1001.0 997.7
00 23.08 В 3 5000 м мгла ясно +32.2 +28.2 79 +53 +53 опасность
перегрева
1001.4 998.1
03 23.08 В 6 6000 м мгла ясно +32.6 +27.1 73 +51 +51 опасность
перегрева
1002.4 999.1 +32.0 666
06 23.08 В 6 6000 м мгла ясно +35.4 +27.3 63 +54 +60 опасность
перегрева
1003.5 1000.2
09 23.08 ЮВ 6 7000 м мгла ясно +38.0 +26.1 51 +53 +61 опасность
перегрева
1003.0 999.7
12 23.08 ЮВ 4 7000 м мгла ясно +39.0 +22.8 40 +48 +54 опасность
перегрева
1001.6 998.3
15 23.08 нст 1 8000 м мгла 1/1 900 м
[Sc Cs]
+36.8 +21.4 41 +44 +44 опасность
перегрева
1001.6 998.3 +39.0 666
18 23.08 ЮЗ 2 7000 м мгла ясно +33.6 +27.0 68 +51 +51 опасность
перегрева
1002.2 999.0
21 23.08 ЮВ 4 4000 м мгла ясно +32.6 +28.3 78 +54 +54 опасность
перегрева
1002.2 998.9
00 24.08 ЮВ 2 5000 м мгла ясно +32.6 +25.4 66 +47 +47 опасность
перегрева
1002.4 999.2
03 24.08 В 2 8000 м мгла 1/0
[Ci fib]
+32.0 +27.1 75 +50 +51 опасность
перегрева
1004.1 1000.9 +31.6
06 24.08 В 5 8000 м мгла ясно +36.4 +25.0 52 +50 +57 опасность
перегрева
1005.1 1001.8
09 24.08 ЮВ 3 8000 м мгла ясно +38.0 +24.0 45 +49 +66 опасность
перегрева
1003.8 1000.5
12 24.08 Ю 3 10 км 1/1 600 м
[Cu hum]
+37.6 +20.7 38 +44 +50 опасность
перегрева
1002.1 998.8
15 24.08 ЮЗ 2 8000 м мгла ясно +34.8 +27.5 66 +54 +54 опасность
перегрева
1002.3 999.0 +39.4 666
18 24.08 З 2 6000 м мгла ясно +32.6 +26.7 71 +50 +50 опасность
перегрева
1002.6 999.3
21 24.08 СЗ 2 5000 м мгла ясно +32.2 +27.6 77 +52 +52 опасность
перегрева
1001.6 998.3
00 25.08 СЗ 2 5000 м дымка ясно +31.6 +27.7 80 +51 +51 опасность
перегрева
1001.0 997.8

 

Местоположение метеостанции Остров Киш (Иран): широта 26.50 долгота 53.98 высота над уровнем моря 30 м.

В архиве по умолчанию представлена погода на Острове Киш за последнюю неделю. Архивные данные за месяц целиком и за предыдущие месяцы, начиная с января 2011 года, Вы можете получить, выбрав интересующий диапазон дат из раскрывающегося списка и нажав кнопку "Ввод!".


*Определитесь, кто Вы:
робот инопланетянин человек

Внимание! Время в таблицах - всемирное. Для получения местного времени необходимо прибавить поправку, которая равна 3.5 ч.

Смотрите также архив погоды в соседних городах и на ближайших метеорологических станциях:

Погода в Бендер-Ленге (Иран) (85 км)
Погода на Острове Сирри (Иран) (87 км)
Погода на Острове Абу-Муса (Иран) (113 км)
Погода в Дубае (ОАЭ) (194 км)
Погода в Шардже (ОАЭ) (202 км)
Погода в Аль-Мактум аэропорту (ОАЭ) (214 км)
Погода в Рай-эль-Хайма аэропорту (ОАЭ) (218 км)
Погода в Эль-Хасаб аэропорту (Оман) (227 км)
Погода в Эль-Хасабе (Оман) (228 км)
Погода в Абу-Даби Батин аэропорту (ОАЭ) (235 км)

Пояснения к столбцам:

Ветер - указаны скорость ветра в м/с - средняя за 10 мин, порывы в срок и между сроками (в фигурных скобках) и направление, откуда дует ветер: С - северный, СВ - северо-восточный, В - восточный, ЮВ - юго-восточный, Ю - южный, ЮЗ - юго-западный, З - западный, СЗ - северо-западный.
Видимость - горизонтальная дальность видимости в метрах или километрах. При видимости от 1 до 10 км при отсутствии осадков обычно наблюдается дымка, при ухудшении видимости до 1 км и менее - туман. В сухую погоду видимость может ухудшаться дымом, пылью или мглою.
Явления - указаны атмосферные явления, наблюдавшиеся в срок или в последний час перед сроком; фигурными скобками обозначены явления, наблюдавшиеся между сроками (за 1-3 часа до срока); квадратными скобками обозначены град или гололедные отложения с указанием их диаметра в мм.
Облачность - указаны через наклонную черту общая и нижняя облачность в баллах и высота нижней границы облаков в метрах; квадратными скобками обозначены формы облаков: Ci - перистые, Cs - перисто-слоистые, Cc - перисто-кучевые, Ac - высококучевые, As - высокослоистые, Sc - слоисто-кучевые, Ns - слоисто-дождевые, Cu - кучевые, Cb - кучево-дождевые. Подробнее классификацию облаков см. в Атласе облаков (PDF).
T - Температура воздуха - температура, измеренная на высоте 2 м над землей.
Td - Температура точки росы - температура, при понижении до которой содержащийся в воздухе водяной пар достигнет насыщения.
f - Относительная влажность воздуха - влажноcть воздуха, измеренная на высоте 2 м над землей.
Te - Эффективная температура - температура, которую ощущает одетый по сезону человек в тени. Характеристика душности погоды. При расчете учитывается влияние влажности воздуха и скорости ветра на теплоощущения человека.
Tes - Эффективная температура на солнце - температура, которую ощущает человек, с поправкой на солнечный нагрев. Характеристика знойности погоды. Зависит от высоты солнца над горизонтом, облачности и скорости ветра. Ночью, в пасмурную погоду, а также при ветре 12 м/с и более поправка равна нулю.
P - Атмосферное давление - приведенное к уровню моря атмосферное давление.
Po - Атмосферное давление - измеренное на уровне метеостанции атмосферное давление.
Tmin - Минимальная температура - минимум температуры воздуха на высоте 2 м над землей.
Tmax - Максимальная температура - максимум температуры воздуха на высоте 2 м над землей.
R - Количество осадков - Количество выпавших осадков за период времени, мм. При наведении курсора мыши на число - период времени, за который выпало указанное количество осадков.
R24 - Количество осадков - Количество выпавших осадков за 24 часа, мм.
S - Снежный покров - Высота снежного покрова, см. При наведении курсора мыши на число - состояние снежного покрова и степень покрытия местности в баллах.